パンスターズ彗星

400P/PanSTARRS (2021)

English version
Home page
Updated on April 27, 2021

---------------------------------------------------------------------

・ プロフィール

符号 400P/2020 R1
発見日 2020年9月9日
発見光度 19.8等
発見者 Pan-STARRS 1 telescope (Haleakala)

・ 写真集

・ 軌道要素

Epoch 2021 Jan. 26.0 TT = JDT 2459240.5                                         
T 2021 Feb. 10.09010 TT                                 Rudenko                 
q   2.1033441            (2000.0)            P               Q                  
n   0.14679798     Peri.  238.78364     +0.57000071     -0.82155786             
a   3.5589563      Node   176.39811     +0.80351668     +0.55433821             
e   0.4089997      Incl.   10.92913     +0.17163955     +0.13323601             
P   6.71                                                                        
From 309 observations 2013 Aug. 15-2021 Jan. 16, mean residual 0".6.            

・ 光度変化

        m1 = 9.5 + 5 logΔ + 20 log r(t - 70)

---------------------------------------------------------------------

軌道要素はM.P.E.C. 2021-B143に掲載されたものです。
光度グラフはComet for Windowsで作成したものです。

---------------------------------------------------------------------

Copyright(C) Seiichi Yoshida (comet@aerith.net). All rights reserved.